パンスターズ彗星

C/2015 V4 ( PanSTARRS )

English version
Home page
Updated on May 22, 2017

---------------------------------------------------------------------

・ プロフィール

発見日 2015年11月3日
発見光度 20.4等
発見者 Pan-STARRS 1 telescope (Haleakala)

・ 写真集

・ 軌道要素

Epoch 2016 Sept. 9.0 TT = JDT 2457640.5
T 2016 Aug. 28.25491 TT                                 MPCW
q   5.4594827            (2000.0)            P               Q
n   0.01234091     Peri.  306.93379     -0.60017996     -0.79986342
a  18.5454715      Node   179.89572     +0.63674476     -0.47657996
e   0.7056164      Incl.   60.75161     -0.48408689     +0.36481510
P  79.87
From 76 observations 2015 Nov. 3-2017 Mar. 7, mean residual 0".4.

・ 光度変化

        m1 = 8.3 + 5 logΔ + 10.0 log r

---------------------------------------------------------------------

軌道要素はM.P.E.C. 2017-E59に掲載されたものです。
光度グラフはComet for Windowsで作成したものです。

---------------------------------------------------------------------

Copyright(C) Seiichi Yoshida (comet@aerith.net). All rights reserved.